Location: Altamira
(10.5079°N, 66.8544°W)
Time: 20:25:47
(UTC+00:00)

S3M - Pass Details

Date: 08 December 2021
Orbit: 949 x 1004 km, 83.0° (Epoch: 16 January)

Event Time Altitude Azimuth Distance (km) Brightness Sun altitude
Rises 23:44:30 0° 177° (S) 3,620 7.2 -23.5°
Reaches altitude 10° 23:46:59 10° 174° (S) 2,679 6.5 -24.1°
Maximum altitude 23:53:03 67° 92° (E) 1,039 3.8 -25.5°
Enters shadow 23:53:54 60° 50° (NE) 1,096 3.9 -25.7°
